Faribault, MN

6:46 AM CST on February 14, 2016 (GMT -0600)
Faribault Municipal

Weather History for KFBL - November, 2013

Change the Weather History Date:

Saturday, November 2, 2013

  Actual Average Record
Temperature  
Mean Temperature 39 °F -  
Max Temperature 48 °F 49 °F 74 °F (1978)
Min Temperature 30 °F 30 °F 8 °F (1951)
Degree Days  
Heating Degree Days 26    
Moisture  
Dew Point 33 °F    
Average Humidity 83    
Maximum Humidity 100    
Minimum Humidity 54    
Precipitation  
Precipitation 0.00 in - - ()
Sea Level Pressure  
Sea Level Pressure 30.02 in    
Wind  
Wind Speed 5 mph (WNW)    
Max Wind Speed 13 mph    
Max Gust Speed 17 mph    
Visibility 10 miles    
Events      
Averages and records for this station are not official NWS values.
T = Trace of Precipitation, MM = Missing Value Source: NWS Daily Summary

Daily Weather History Graph

Daily Weather History Graph

Search for Another Location

Airport or City:

Trip Planner

Search our weather history database for the weather conditions in past years. The results will help you decide how hot, cold, wet, or windy it might be!

Date:

Astronomy

Nov. 02, 2013 Rise Set
Actual Time 7:52 AM CDT 6:00 PM CDT
Civil Twilight 7:21 AM CDT 6:31 PM CDT
Nautical Twilight 6:47 AM CDT 7:05 PM CDT
Astronomical Twilight 6:13 AM CDT 7:39 PM CDT
Moon 6:48 AM CDT (11/2) 5:33 PM CDT (11/2)
Length of Visible Light 11h 09m
Length of Day
10h 08m
Waning Crescent, 1% of the Moon is Illuminated
Nov 2
Waning Crescent
Nov 3
New
Nov 9
First Quarter
Nov 17
Full
Nov 25
Last Quarter

Hourly Weather History & Observations

Time (CDT) Temp. Windchill Dew Point Humidity Pressure Visibility Wind Dir Wind Speed Gust Speed Precip Events Conditions
12:01 AM 35.6 °F - 33.8 °F 93% 29.86 in 10.0 mi West 2.3 mph - N/A   Mostly Cloudy
12:21 AM 35.6 °F - 33.8 °F 93% 29.86 in 10.0 mi WNW 1.2 mph - N/A   Overcast
12:41 AM 35.6 °F 30.7 °F 33.8 °F 93% 29.87 in 10.0 mi West 5.8 mph - N/A   Overcast
1:01 AM 37.4 °F 33.8 °F 35.6 °F 93% 29.88 in 10.0 mi West 4.6 mph - N/A   Overcast
1:21 AM 37.4 °F 34.9 °F 35.6 °F 93% 29.88 in 10.0 mi WSW 3.5 mph - N/A   Overcast
1:41 AM 39.2 °F 37.0 °F 35.6 °F 87% 29.88 in 10.0 mi WSW 3.5 mph - N/A   Overcast
2:01 AM 37.4 °F 33.8 °F 37.4 °F 100% 29.89 in 10.0 mi West 4.6 mph - N/A   Overcast
2:21 AM 39.2 °F 34.2 °F 37.4 °F 93% 29.89 in 10.0 mi West 6.9 mph - N/A   Overcast
2:41 AM 39.2 °F 33.6 °F 37.4 °F 93% 29.90 in 10.0 mi West 8.1 mph - N/A   Overcast
3:01 AM 39.2 °F 34.2 °F 37.4 °F 93% 29.90 in 10.0 mi WNW 6.9 mph - N/A   Overcast
3:21 AM 39.2 °F 32.5 °F 37.4 °F 93% 29.90 in 10.0 mi NW 10.4 mph - N/A   Overcast
3:41 AM 39.2 °F 32.5 °F 35.6 °F 87% 29.91 in 10.0 mi NW 10.4 mph - N/A   Mostly Cloudy
4:01 AM 39.2 °F 33.0 °F 33.8 °F 81% 29.92 in 10.0 mi NW 9.2 mph 17.3 mph N/A   Scattered Clouds
4:21 AM 37.4 °F 32.8 °F 33.8 °F 87% 29.93 in 10.0 mi NW 5.8 mph - N/A   Clear
4:41 AM 35.6 °F 31.7 °F 33.8 °F 93% 29.93 in 10.0 mi NW 4.6 mph - N/A   Clear
5:01 AM 35.6 °F 30.7 °F 33.8 °F 93% 29.94 in 10.0 mi WNW 5.8 mph - N/A   Clear
5:21 AM 33.8 °F 29.6 °F 32.0 °F 93% 29.95 in 10.0 mi West 4.6 mph - N/A   Clear
5:41 AM 33.8 °F 29.6 °F 32.0 °F 93% 29.95 in 10.0 mi West 4.6 mph - N/A   Clear
6:01 AM 33.8 °F 29.6 °F 32.0 °F 93% 29.96 in 10.0 mi West 4.6 mph - N/A   Clear
6:21 AM 33.8 °F 28.6 °F 32.0 °F 93% 29.97 in 10.0 mi West 5.8 mph - N/A   Clear
6:41 AM 33.8 °F 27.7 °F 33.8 °F 100% 29.98 in 10.0 mi West 6.9 mph - N/A   Clear
7:01 AM 33.8 °F 27.0 °F 33.8 °F 100% 29.98 in 10.0 mi WNW 8.1 mph - N/A   Clear
7:21 AM 33.8 °F 28.6 °F 32.0 °F 93% 29.99 in 10.0 mi WNW 5.8 mph - N/A   Clear
7:41 AM 33.8 °F 27.7 °F 32.0 °F 93% 29.99 in 10.0 mi WNW 6.9 mph - N/A   Clear
8:01 AM 33.8 °F 28.6 °F 32.0 °F 93% 30.00 in 10.0 mi WNW 5.8 mph - N/A   Clear
8:21 AM 33.8 °F 29.6 °F 32.0 °F 93% 30.01 in 10.0 mi NW 4.6 mph - N/A   Clear
8:41 AM 33.8 °F 27.7 °F 32.0 °F 93% 30.02 in 10.0 mi NW 6.9 mph - N/A   Clear
9:01 AM 35.6 °F 30.7 °F 32.0 °F 87% 30.03 in 10.0 mi WNW 5.8 mph - N/A   Clear
9:21 AM 35.6 °F 28.6 °F 32.0 °F 87% 30.03 in 10.0 mi NW 9.2 mph - N/A   Clear
9:41 AM 37.4 °F 31.4 °F 33.8 °F 87% 30.03 in 10.0 mi NW 8.1 mph - N/A   Clear
10:01 AM 37.4 °F 31.4 °F 33.8 °F 87% 30.04 in 10.0 mi NW 8.1 mph - N/A   Clear
10:21 AM 39.2 °F 31.6 °F 33.8 °F 81% 30.05 in 10.0 mi NNW 12.7 mph - N/A   Clear
10:41 AM 39.2 °F 33.6 °F 33.8 °F 81% 30.05 in 10.0 mi NNW 8.1 mph - N/A   Clear
11:01 AM 39.2 °F 33.6 °F 33.8 °F 81% 30.06 in 10.0 mi NNW 8.1 mph - N/A   Clear
11:21 AM 41.0 °F 35.2 °F 33.8 °F 76% 30.06 in 10.0 mi WNW 9.2 mph - N/A   Clear
11:41 AM 41.0 °F 35.8 °F 33.8 °F 76% 30.07 in 10.0 mi NW 8.1 mph - N/A   Scattered Clouds
12:01 PM 42.8 °F 38.6 °F 33.8 °F 70% 30.07 in 10.0 mi NW 6.9 mph - N/A   Clear
12:21 PM 42.8 °F 38.6 °F 33.8 °F 70% 30.07 in 10.0 mi NNW 6.9 mph - N/A   Clear
12:41 PM 44.6 °F 40.7 °F 32.0 °F 61% 30.07 in 10.0 mi WNW 6.9 mph - N/A   Clear
1:01 PM 44.6 °F 40.7 °F 32.0 °F 61% 30.07 in 10.0 mi West 6.9 mph - N/A   Clear
1:21 PM 46.4 °F 42.4 °F 32.0 °F 57% 30.07 in 10.0 mi WNW 8.1 mph - N/A   Clear
1:41 PM 46.4 °F 42.4 °F 33.8 °F 62% 30.06 in 10.0 mi West 8.1 mph - N/A   Clear
2:01 PM 46.4 °F 43.5 °F 33.8 °F 62% 30.06 in 10.0 mi WNW 5.8 mph - N/A   Clear
2:21 PM 46.4 °F 42.4 °F 32.0 °F 57% 30.06 in 10.0 mi West 8.1 mph - N/A   Clear
2:41 PM 46.4 °F 42.4 °F 32.0 °F 57% 30.06 in 10.0 mi WNW 8.1 mph - N/A   Clear
3:01 PM 48.2 °F - 32.0 °F 54% 30.06 in 10.0 mi West 8.1 mph - N/A   Clear
3:21 PM 48.2 °F - 33.8 °F 58% 30.06 in 10.0 mi WNW 8.1 mph - N/A   Clear
3:41 PM 48.2 °F - 33.8 °F 58% 30.06 in 10.0 mi West 4.6 mph - N/A   Clear
4:01 PM 48.2 °F - 33.8 °F 58% 30.06 in 10.0 mi West 9.2 mph - N/A   Clear
4:21 PM 48.2 °F - 33.8 °F 58% 30.06 in 10.0 mi NW 5.8 mph - N/A   Clear
4:41 PM 46.4 °F 43.5 °F 35.6 °F 66% 30.07 in 10.0 mi West 5.8 mph - N/A   Clear
5:01 PM 46.4 °F 45.2 °F 33.8 °F 62% 30.08 in 10.0 mi WNW 3.5 mph - N/A   Clear
5:21 PM 46.4 °F - 35.6 °F 66% 30.07 in 10.0 mi NNW 2.3 mph - N/A   Clear
5:41 PM 44.6 °F 43.1 °F 33.8 °F 66% 30.08 in 10.0 mi West 3.5 mph - N/A   Clear
6:01 PM 44.6 °F - 33.8 °F 66% 30.08 in 10.0 mi Calm Calm - N/A   Clear
6:21 PM 39.2 °F - 33.8 °F 81% 30.08 in 10.0 mi Calm Calm - N/A   Clear
6:41 PM 37.4 °F - 33.8 °F 87% 30.08 in 10.0 mi Calm Calm - N/A   Clear
7:01 PM 37.4 °F - 33.8 °F 87% 30.08 in 10.0 mi Calm Calm - N/A   Clear
7:21 PM 35.6 °F - 32.0 °F 87% 30.08 in 10.0 mi Calm Calm - N/A   Clear
7:41 PM 35.6 °F - 32.0 °F 87% 30.09 in 10.0 mi Calm Calm - N/A   Clear
8:01 PM 33.8 °F - 30.2 °F 87% 30.09 in 10.0 mi Calm Calm - N/A   Clear
8:21 PM 33.8 °F - 32.0 °F 93% 30.09 in 10.0 mi South 2.3 mph - N/A   Clear
9:01 PM 35.6 °F - 32.0 °F 87% 30.08 in 10.0 mi SSE 2.3 mph - N/A   Clear
9:21 PM 33.8 °F - 32.0 °F 93% 30.08 in 10.0 mi SSE 2.3 mph - N/A   Clear
9:41 PM 33.8 °F - 32.0 °F 93% 30.08 in 10.0 mi SSE 2.3 mph - N/A   Clear
10:01 PM 33.8 °F - 30.2 °F 87% 30.09 in 10.0 mi SSE 2.3 mph - N/A   Clear
10:21 PM 32.0 °F - 30.2 °F 93% 30.09 in 10.0 mi South 1.2 mph - N/A   Clear
10:41 PM 30.2 °F - 30.2 °F 100% 30.10 in 7.0 mi South 1.2 mph - N/A   Clear
11:01 PM 30.2 °F - 28.4 °F 93% 30.10 in 10.0 mi SSE 2.3 mph - N/A   Clear
11:21 PM 30.2 °F - 30.2 °F 100% 30.10 in 7.0 mi SSE 1.2 mph - N/A   Clear
11:41 PM 30.2 °F - 30.2 °F 100% 30.09 in 10.0 mi SSE 2.3 mph - N/A   Clear